Dewpoint
28 30 30 31 32 32 31 33 41 42 48 47 47 48 54 57 56 55 55 56 57 58 60 60 62 64 63 64 66 67 68 69 69 69 68 68 67 67 67 68 68 69 69 69
28 29 30 30 32 32 32 31 34 34 45 47 46 46 52 56 56 56 55 55 55 55 57 59 61 63 63 63 64 67 67 69 69 69 69 69 68 68 68 69 68 68 68 69
27 30 29 28 30 32 32 31 30 29 44 45 47 45 49 55 56 56 55 55 55 55 56 58 60 62 62 63 64 65 67 68 69 69 69 69 69 69 68 68 68 68 68 70
28 29 28 26 25 32 30 33 30 40 41 37 45 32 44 50 53 54 54 53 54 55 56 58 59 61 61 62 64 65 66 68 69 70 69 68 67 66 66 67 68 68 68 67
27 26 22 23 20 32 31 32 28 38 33 37 40 34 32 48 48 50 51 52 54 55 56 58 59 61 62 63 64 65 66 68 69 70 69 69 68 67 67 67 66 67 68 69
26 23 22 21 20 27 29 24 22 22 21 23 29 34 26 37 46 48 50 52 53 56 57 58 59 61 62 64 65 66 66 67 69 70 70 69 68 68 67 67 67 68 68 69
22 21 18 18 16 20 24 22 20 18 16 16 25 30 28 43 47 48 50 51 53 57 57 59 59 60 62 64 65 66 67 66 68 69 69 69 69 68 67 67 67 66 67 68
14 19 14 13 16 13 18 19 16 17 15 17 32 26 33 47 51 53 51 52 55 56 59 60 61 61 61 63 65 66 67 66 67 68 69 69 69 69 68 68 68 67 65 66
14 13 15 15 15 16 18 18 21 19 20 18 24 37 39 47 49 53 53 54 55 57 58 59 60 61 61 60 62 66 67 68 68 65 63 65 70 70 69 69 69 68 68 69
14 13 13 25 28 30 15 19 15 17 13 12 25 35 31 40 44 51 53 54 55 58 60 61 63 65 64 61 64 66 65 63 63 63 63 63 63 63 66 71 70 70 70 70
14 12 12 22 30 28 26 26 20 20 19 16 20 26 39 40 45 49 53 54 54 57 60 62 65 67 68 65 63 62 62 63 63 63 62 63 63 64 64 69 67 67 70 69
15 13 9 13 32 36 33 31 23 20 20 29 27 27 47 51 51 54 52 54 60 61 61 62 65 65 64 66 64 62 62 62 63 62 60 60 62 63 64 68 70 70 68 69
19 14 10 20 29 32 31 33 32 28 30 30 27 27 50 53 53 55 55 56 59 60 59 59 62 65 63 61 62 62 62 62 61 61 62 64 63 64 64 67 69 68 67 66
27 26 14 12 20 30 30 33 32 30 26 29 30 27 43 50 52 52 54 57 59 56 59 57 58 61 63 63 63 61 62 63 61 61 63 63 64 65 64 67 66 65 63 62
25 22 30 32 33 33 32 31 33 30 29 26 26 29 34 47 50 51 54 57 57 55 57 55 56 60 62 63 64 64 63 62 63 61 62 62 65 66 66 64 62 61 62 60
35 30 34 34 36 35 31 32 33 34 33 32 36 33 45 50 50 51 53 56 54 58 56 55 58 60 62 61 62 63 63 64 64 63 63 64 64 64 62 61 62 62 62 62
35 34 30 31 37 32 27 29 33 33 34 38 34 36 49 50 49 49 53 56 58 59 57 57 60 61 61 59 59 59 59 60 60 59 59 60 60 60 61 61 61 62 62 62
35 34 34 32 30 24 27 31 34 34 35 41 41 45 48 49 53 54 55 57 58 61 59 58 58 57 58 58 58 58 57 57 57 57 57 57 57 57 57 57 57 58 59 59
33 32 32 29 28 27 25 33 36 33 35 42 44 47 52 55 55 55 57 59 58 57 55 56 56 56 56 54 53 52 52 52 53 53 53 53 53 54 55 54 54 56 55 55
30 28 27 33 28 24 25 35 36 38 30 44 48 47 52 54 46 52 55 58 54 53 53 53 53 53 53 52 52 51 50 49 49 50 50 50 50 50 50 49 51 52 51 50
29 29 25 26 24 25 28 38 38 27 27 47 53 50 55 51 52 56 55 53 52 51 51 51 50 49 50 51 50 48 48 48 49 49 48 48 47 48 47 47 47 48 48 48
28 27 26 27 25 22 38 39 30 31 46 52 54 52 52 53 53 54 53 52 51 50 49 48 48 48 49 49 48 48 47 48 47 46 46 46 46 45 45 44 44 45 45 46
29 28 26 28 27 37 44 41 45 47 47 52 52 52 53 52 52 52 51 50 50 49 48 48 48 48 48 49 48 46 47 47 45 44 43 43 44 44 44 44 43 43 44 44
34 39 37 37 40 44 45 46 47 48 48 49 51 52 52 51 50 49 49 48 48 48 47 47 46 46 46 47 47 47 47 46 44 43 43 44 43 43 43 43 43 42 43 43
35 38 39 40 43 44 45 46 47 48 49 50 50 50 49 49 48 48 48 47 47 47 47 46 46 46 45 46 46 46 46 44 43 43 44 44 43 42 42 42 41 41 42 43
37 35 34 26 39 40 41 46 48 48 48 48 49 48 48 48 47 47 46 46 46 46 46 45 45 45 45 45 45 45 45 46 44 44 44 44 43 42 42 40 39 40 41 40
Wind_Speed
4 2 6 2 3 7 3 8 14 8 9 12 20 3 16 20 18 19 20 21 23 24 26 15 16 16 17 17 18 20 19 15 14 9 9 10 12 12 11 13 15 12 11 12
2 7 5 3 1 1 2 6 13 8 12 21 9 11 12 21 30 25 22 22 25 23 16 15 17 17 19 20 20 18 18 16 16 11 8 7 7 10 7 9 13 14 11 12
5 4 2 5 4 2 4 7 2 1 9 0 2 6 10 15 17 18 18 17 18 23 22 18 19 22 18 19 23 20 20 19 15 15 8 5 2 4 4 8 9 11 11 12
7 3 4 5 5 3 7 2 2 11 15 11 5 8 10 19 23 23 24 20 22 20 17 18 20 19 21 25 16 18 18 18 16 16 14 15 13 12 6 8 6 7 8 10
6 4 2 9 4 6 6 2 1 10 7 7 5 2 11 7 21 30 25 25 23 22 22 21 22 22 21 16 19 18 18 17 16 17 15 15 15 13 8 6 8 6 7 8
4 2 5 5 2 7 5 2 6 7 3 5 7 8 18 6 17 20 17 21 20 18 19 18 15 13 17 13 14 18 19 21 19 18 18 19 20 16 12 12 13 9 8 8
4 6 5 4 5 2 3 4 3 1 1 7 2 8 14 9 12 12 15 23 23 17 15 12 9 9 5 6 13 12 19 21 20 18 18 20 19 15 16 17 14 13 11 9
5 6 6 3 5 3 1 4 5 5 3 4 5 6 5 8 14 15 14 22 17 16 11 14 6 9 11 8 12 13 14 21 13 8 6 9 14 16 18 15 15 14 13 13
7 5 3 4 2 5 6 5 4 6 2 1 2 4 10 6 11 8 8 13 6 15 16 12 12 14 10 9 9 9 13 9 15 14 11 15 14 15 18 17 12 14 12 11
6 2 1 2 3 7 4 10 3 0 2 5 3 3 6 8 10 11 6 1 8 16 17 20 15 12 8 10 12 16 22 22 14 13 7 9 13 22 32 12 11 12 12 6
6 3 3 2 1 1 1 3 5 6 4 5 3 5 8 10 13 10 5 4 4 12 14 17 14 10 10 18 12 14 17 19 16 14 7 5 5 19 32 27 16 12 5 5
11 4 4 3 3 2 3 4 5 4 5 1 3 5 4 7 7 4 7 4 8 14 19 16 15 16 16 12 8 9 11 11 12 11 4 10 12 15 31 28 18 8 5 5
14 4 4 4 2 2 2 2 5 8 4 7 5 5 5 3 3 5 7 8 5 14 13 14 12 15 17 16 13 9 5 3 5 9 16 17 10 4 24 28 17 8 8 7
12 6 8 18 11 6 6 8 9 4 5 8 8 5 8 10 9 8 10 8 4 6 4 8 6 5 7 4 4 10 8 2 3 3 14 14 11 5 21 25 15 10 9 9
12 10 6 2 4 5 4 7 8 7 4 9 9 12 7 17 18 16 12 6 6 4 2 6 5 3 5 6 8 9 10 9 9 6 3 6 3 10 16 17 12 7 8 6
3 8 7 5 1 4 1 3 4 7 2 7 4 6 4 7 10 11 13 8 4 2 8 6 4 6 8 7 5 9 13 11 8 7 3 7 5 6 9 8 6 5 6 6
6 10 4 7 4 4 1 5 11 5 7 7 8 4 12 13 18 15 13 11 8 7 5 2 5 7 8 12 13 15 15 16 17 16 14 12 9 8 10 11 11 10 9 8
13 10 4 6 3 3 3 6 8 6 2 10 3 9 14 15 6 9 9 9 6 7 11 9 8 10 14 16 17 17 17 17 16 14 14 13 11 10 10 10 10 9 8 9
8 9 6 7 7 3 4 4 3 2 4 7 5 8 13 15 10 5 3 6 8 11 13 14 13 14 17 18 16 20 16 13 12 10 9 9 10 11 12 14 14 12 13 14
13 12 7 5 7 9 6 4 4 7 8 7 8 14 19 14 10 7 9 14 14 14 14 18 17 16 17 12 12 15 12 12 13 12 12 12 14 14 14 14 14 12 13 14
4 5 7 5 3 4 7 5 7 2 7 7 8 12 14 9 3 15 20 17 16 15 16 15 15 15 11 9 10 14 12 13 9 8 9 11 13 12 13 13 12 15 17 16
7 6 4 5 4 7 3 5 7 4 4 8 9 10 14 19 17 18 20 20 20 18 14 12 14 12 9 9 11 11 11 7 8 9 10 10 11 11 11 14 15 15 15 16
4 3 8 9 7 2 4 4 3 9 8 10 13 16 25 23 19 17 17 18 16 16 14 12 14 13 9 7 9 11 7 6 6 7 8 7 4 3 5 8 12 13 13 14
2 3 3 5 2 3 2 2 3 5 7 12 18 24 24 25 19 21 18 16 13 10 10 9 11 12 11 8 8 8 6 5 5 3 4 5 7 10 11 11 10 12 13 13
2 7 7 0 2 1 5 3 8 12 18 21 16 17 23 26 20 18 16 14 11 10 7 7 8 8 7 5 5 5 7 7 4 1 1 4 5 7 8 8 10 12 14 15
5 6 5 4 12 7 8 14 14 20 21 20 28 19 12 18 20 18 15 11 9 9 7 7 6 5 2 2 2 2 2 1 3 6 7 9 9 9 9 11 16 12 16 23
Wind_Direction
20 95 226 260 196 165 212 215 210 241 207 195 224 184 200 192 205 201 202 209 217 221 226 209 199 184 183 186 184 192 191 193 182 181 206 227 231 233 233 219 229 235 241 243
351 236 224 257 172 199 235 187 219 239 199 195 219 231 218 199 212 210 206 208 217 228 223 205 190 183 192 193 193 192 196 189 195 198 197 203 211 236 230 225 224 228 240 252
214 238 207 292 345 338 213 230 214 219 162 183 120 256 213 224 223 226 229 223 223 216 214 201 193 195 189 197 200 195 193 196 189 198 189 202 262 277 255 239 247 238 233 245
226 259 291 358 308 191 301 199 113 135 153 202 180 268 238 214 219 223 230 226 223 216 211 201 197 197 197 209 192 190 190 194 195 187 202 209 220 236 241 258 250 247 235 252
201 157 31 324 269 180 253 4 326 184 155 128 216 213 263 213 226 230 223 225 222 209 203 204 202 201 209 195 190 189 187 194 200 194 199 217 232 248 260 290 283 261 247 235
213 237 259 231 274 219 244 159 76 82 122 225 209 201 281 230 247 252 221 221 221 198 197 200 204 197 196 196 191 184 187 203 203 198 199 214 226 236 255 263 273 272 251 246
330 272 262 223 310 19 131 78 322 318 213 243 89 176 254 290 277 278 239 216 216 187 186 180 156 189 131 205 204 200 194 211 205 200 202 214 225 227 239 250 259 270 265 247
180 212 209 174 186 221 93 186 188 237 223 290 130 227 260 262 299 307 261 210 204 183 113 99 117 85 110 171 207 219 204 221 218 203 268 246 222 225 235 240 249 250 253 263
173 251 301 248 237 170 189 210 161 118 52 288 247 288 291 283 304 313 224 204 128 95 96 99 78 73 81 80 68 155 184 134 100 101 55 34 344 265 241 239 233 237 237 250
190 240 281 231 93 60 192 148 156 112 215 246 282 268 246 263 259 268 256 197 86 96 100 103 87 75 77 96 94 91 103 112 113 114 95 60 16 14 337 238 224 250 242 229
150 179 231 39 70 109 284 162 75 113 123 204 224 245 219 250 237 251 278 267 75 89 114 115 110 89 82 116 113 108 107 129 158 164 215 219 62 0 350 290 266 260 227 215
188 156 245 226 289 168 230 172 129 184 215 154 176 261 233 274 271 250 261 289 55 71 118 123 133 116 116 138 127 104 99 134 180 198 208 18 39 49 319 298 273 224 189 190
168 213 243 343 20 24 280 88 108 113 109 177 184 232 333 322 289 271 287 297 12 77 118 124 139 145 149 152 145 107 101 142 138 115 100 87 85 10 228 282 268 171 169 147
148 142 186 226 218 161 193 177 159 152 170 175 226 248 235 219 212 241 263 277 346 21 96 114 145 179 192 236 195 154 154 184 173 130 80 97 81 194 247 266 235 166 170 171
173 200 177 223 183 156 208 202 181 196 208 197 231 208 279 214 204 222 230 246 283 329 195 145 113 101 339 305 217 206 165 166 185 112 138 99 124 200 226 233 219 200 196 201
53 177 129 147 220 139 181 223 183 226 240 269 260 218 292 173 173 198 211 183 216 258 235 163 146 80 35 47 83 78 83 104 130 108 10 328 332 269 262 277 295 296 296 297
120 134 128 165 16 71 274 213 215 198 186 186 195 207 166 168 192 198 184 180 185 202 193 52 19 30 48 41 57 56 55 59 60 68 66 61 51 38 18 10 8 352 337 325
131 112 99 156 116 210 232 315 220 174 216 198 241 155 170 180 157 175 189 194 180 116 97 70 65 73 73 85 88 84 72 72 71 61 51 42 36 35 27 26 17 3 357 347
118 121 105 154 184 283 155 164 154 190 237 206 214 143 137 135 109 99 141 73 111 103 90 91 86 80 78 78 88 94 85 85 78 71 54 41 34 25 22 14 3 1 354 344
76 96 121 155 172 195 195 160 112 134 266 202 178 175 156 153 170 172 135 115 104 97 95 91 84 84 87 89 93 90 87 75 57 41 36 34 29 26 14 360 349 340 340 326
131 95 148 150 198 277 248 165 149 171 270 186 176 169 164 168 147 127 116 105 102 99 93 87 88 94 95 92 85 75 71 64 61 55 52 43 32 19 3 351 342 336 330 322
178 155 143 128 163 248 169 135 175 210 189 172 143 149 132 122 116 118 119 122 121 119 115 110 104 93 77 77 92 96 90 85 74 69 61 45 26 11 352 342 331 320 312 303
211 182 177 186 194 220 273 250 299 170 172 172 147 140 133 129 131 129 125 122 124 126 126 127 122 117 112 115 116 108 114 105 113 97 77 60 21 323 293 296 305 308 303 294
210 167 128 138 207 274 321 288 180 180 171 147 136 139 139 138 135 127 126 126 122 120 118 125 125 124 123 130 122 114 128 141 134 103 41 14 349 347 342 329 316 309 302 300
207 143 134 270 274 310 263 233 155 124 121 120 114 126 131 129 133 134 134 131 129 125 122 118 116 114 109 116 128 150 158 159 152 164 321 318 319 328 322 298 301 311 307 298
187 165 175 241 199 189 220 174 155 145 143 138 133 127 117 134 138 139 138 137 133 131 132 131 136 134 140 192 233 226 220 245 317 316 313 314 318 320 320 326 330 327 317 311